SARSAT 12 (NOAA 19)

Last updated on Fri Aug 15 2025 00:02:34 GMT+0000 (Coordinated Universal Time)

1 33591U 09005A 25226.60605455 .00000125 00000+0 90552-4 0 9995 2 33591 98.9930 291.6684 0013974 173.0226 187.1143 14.13396089851173

Satellite not in orbit

SARSAT 12 (NOAA 19)